N172BD CYKF-KBUF

Flight info

Callsign N172BD
Flight time 1h 1m
Altitude 3000
Route UKNIX
Aircraft C172/L-SFG/C

Departure

Time 2026-05-06 22:10
Airport Region of Waterloo International Airport (CYKF)

Arrival

Time 2026-05-06 23:11
Airport Buffalo Niagara International Airport (KBUF)
Time Latitude Longitude Altitude Speed Heading
2026-05-06 21:51 43.45584 -80.38807 1029 ft 0 kts 137°
2026-05-06 21:57 43.45584 -80.38809 1029 ft 0 kts 168°
2026-05-06 21:58 43.45594 -80.38812 1029 ft 0 kts 167°
2026-05-06 21:58 43.45584 -80.38817 1029 ft 5 kts 237°
2026-05-06 21:58 43.45595 -80.38839 1029 ft 0 kts 346°
2026-05-06 22:04 43.45618 -80.38850 1028 ft 5 kts 343°
2026-05-06 22:04 43.45667 -80.38841 1029 ft 9 kts 22°
2026-05-06 22:04 43.45706 -80.38754 1030 ft 13 kts 66°
2026-05-06 22:05 43.45745 -80.38645 1031 ft 11 kts 67°
2026-05-06 22:05 43.45770 -80.38555 1031 ft 10 kts 94°
2026-05-06 22:05 43.45725 -80.38467 1031 ft 14 kts 128°
2026-05-06 22:05 43.45655 -80.38345 1031 ft 18 kts 129°
2026-05-06 22:06 43.45577 -80.38210 1030 ft 18 kts 126°
2026-05-06 22:06 43.45506 -80.38088 1030 ft 12 kts 127°
2026-05-06 22:06 43.45502 -80.38031 1030 ft 0 kts 54°
2026-05-06 22:08 43.45519 -80.38011 1030 ft 9 kts 41°
2026-05-06 22:08 43.45586 -80.38001 1029 ft 12 kts 304°
2026-05-06 22:09 43.45687 -80.38183 1032 ft 44 kts 313°
2026-05-06 22:09 43.45952 -80.38644 1034 ft 76 kts 307°
2026-05-06 22:09 43.46302 -80.39281 1183 ft 84 kts 305°
2026-05-06 22:09 43.46683 -80.39967 1278 ft 93 kts 307°
2026-05-06 22:10 43.47047 -80.40661 1478 ft 90 kts 308°
2026-05-06 22:10 43.47381 -80.41307 1764 ft 83 kts 304°
2026-05-06 22:10 43.47628 -80.42082 1875 ft 93 kts 296°
2026-05-06 22:10 43.48034 -80.42834 1956 ft 102 kts 309°
2026-05-06 22:11 43.48476 -80.43616 2020 ft 100 kts 309°
2026-05-06 22:11 43.48888 -80.44348 2080 ft 94 kts 308°
2026-05-06 22:11 43.49279 -80.45032 2143 ft 90 kts 308°
2026-05-06 22:11 43.49666 -80.45698 2186 ft 87 kts 308°
2026-05-06 22:12 43.50030 -80.46317 2289 ft 81 kts 308°
2026-05-06 22:12 43.50379 -80.46909 2379 ft 78 kts 308°
2026-05-06 22:12 43.50717 -80.47476 2466 ft 75 kts 308°
2026-05-06 22:12 43.51040 -80.48040 2572 ft 77 kts 304°
2026-05-06 22:13 43.51542 -80.48323 2678 ft 84 kts 351°
2026-05-06 22:13 43.52110 -80.48122 2785 ft 88 kts 24°
2026-05-06 22:13 43.52528 -80.47425 2903 ft 107 kts 65°
2026-05-06 22:13 43.52474 -80.46363 3024 ft 121 kts 115°
2026-05-06 22:14 43.52003 -80.45349 3044 ft 128 kts 124°
2026-05-06 22:14 43.51536 -80.44349 3031 ft 122 kts 122°
2026-05-06 22:14 43.51096 -80.43366 3028 ft 122 kts 121°
2026-05-06 22:14 43.50641 -80.42342 3028 ft 128 kts 122°
2026-05-06 22:15 43.50184 -80.41315 3023 ft 124 kts 121°
2026-05-06 22:15 43.49731 -80.40293 3034 ft 127 kts 122°
2026-05-06 22:15 43.49265 -80.39242 3024 ft 128 kts 122°
2026-05-06 22:15 43.48811 -80.38220 3022 ft 124 kts 122°
2026-05-06 22:16 43.48363 -80.37205 3032 ft 125 kts 122°
2026-05-06 22:16 43.47902 -80.36165 3034 ft 129 kts 122°
2026-05-06 22:16 43.47436 -80.35116 3024 ft 128 kts 122°
2026-05-06 22:16 43.46974 -80.34073 3022 ft 126 kts 122°
2026-05-06 22:17 43.46518 -80.33043 3030 ft 126 kts 122°
2026-05-06 22:17 43.46064 -80.32017 3026 ft 125 kts 121°
2026-05-06 22:17 43.45611 -80.30998 3023 ft 123 kts 122°
2026-05-06 22:17 43.45157 -80.29978 3017 ft 126 kts 122°
2026-05-06 22:18 43.44709 -80.28966 3037 ft 124 kts 121°
2026-05-06 22:18 43.44256 -80.27951 3023 ft 123 kts 122°
2026-05-06 22:18 43.43813 -80.26954 3032 ft 122 kts 121°
2026-05-06 22:18 43.43365 -80.25946 3034 ft 126 kts 121°
2026-05-06 22:19 43.42898 -80.24902 3023 ft 127 kts 122°
2026-05-06 22:19 43.42443 -80.23877 3025 ft 125 kts 122°
2026-05-06 22:19 43.41993 -80.22866 3019 ft 123 kts 122°
2026-05-06 22:19 43.41550 -80.21870 3016 ft 121 kts 123°
2026-05-06 22:20 43.41112 -80.20885 3020 ft 121 kts 123°
2026-05-06 22:20 43.40676 -80.19906 3022 ft 120 kts 123°
2026-05-06 22:20 43.40240 -80.18928 3019 ft 120 kts 123°
2026-05-06 22:20 43.39807 -80.17954 3022 ft 120 kts 123°
2026-05-06 22:21 43.39371 -80.16979 3024 ft 120 kts 123°
2026-05-06 22:21 43.38934 -80.16001 3023 ft 120 kts 123°
2026-05-06 22:21 43.38501 -80.15029 3020 ft 119 kts 123°
2026-05-06 22:21 43.38070 -80.14065 3023 ft 118 kts 123°
2026-05-06 22:22 43.37642 -80.13105 3024 ft 118 kts 123°
2026-05-06 22:22 43.37211 -80.12142 3021 ft 118 kts 123°
2026-05-06 22:22 43.36783 -80.11184 3023 ft 117 kts 123°
2026-05-06 22:22 43.36358 -80.10231 3016 ft 117 kts 123°
2026-05-06 22:23 43.35933 -80.09281 3014 ft 117 kts 123°
2026-05-06 22:23 43.35505 -80.08327 3017 ft 117 kts 123°
2026-05-06 22:23 43.35080 -80.07376 3016 ft 117 kts 123°
2026-05-06 22:23 43.34655 -80.06428 3012 ft 116 kts 123°
2026-05-06 22:24 43.34231 -80.05481 3014 ft 116 kts 123°
2026-05-06 22:24 43.33818 -80.04557 3011 ft 116 kts 122°
2026-05-06 22:24 43.33392 -80.03608 3011 ft 116 kts 123°
2026-05-06 22:24 43.32967 -80.02661 3009 ft 116 kts 123°
2026-05-06 22:25 43.32543 -80.01714 3012 ft 116 kts 123°
2026-05-06 22:25 43.32121 -80.00774 3010 ft 115 kts 123°
2026-05-06 22:25 43.31699 -79.99833 3014 ft 116 kts 123°
2026-05-06 22:25 43.31273 -79.98884 3011 ft 117 kts 123°
2026-05-06 22:26 43.30844 -79.97931 3007 ft 118 kts 123°
2026-05-06 22:26 43.30414 -79.96974 3013 ft 118 kts 123°
2026-05-06 22:26 43.29978 -79.96005 3012 ft 120 kts 123°
2026-05-06 22:26 43.29536 -79.95023 3011 ft 122 kts 123°
2026-05-06 22:27 43.29085 -79.94022 3015 ft 124 kts 123°
2026-05-06 22:27 43.28630 -79.93012 3010 ft 124 kts 123°
2026-05-06 22:27 43.28178 -79.92007 3007 ft 124 kts 123°
2026-05-06 22:27 43.27729 -79.91007 3008 ft 122 kts 123°
2026-05-06 22:28 43.27284 -79.90019 3004 ft 121 kts 123°
2026-05-06 22:28 43.26842 -79.89035 3002 ft 121 kts 123°
2026-05-06 22:28 43.26469 -79.88003 2996 ft 121 kts 109°
2026-05-06 22:28 43.26181 -79.86927 2992 ft 120 kts 111°
2026-05-06 22:29 43.25887 -79.85860 2993 ft 119 kts 111°
2026-05-06 22:29 43.25593 -79.84795 2995 ft 119 kts 111°
2026-05-06 22:29 43.25300 -79.83729 2998 ft 120 kts 111°
2026-05-06 22:29 43.25003 -79.82656 2999 ft 121 kts 111°
2026-05-06 22:30 43.24704 -79.81575 3002 ft 122 kts 111°
2026-05-06 22:30 43.24426 -79.80570 3007 ft 122 kts 111°
2026-05-06 22:30 43.24123 -79.79475 3009 ft 123 kts 110°
2026-05-06 22:30 43.23818 -79.78374 3011 ft 124 kts 111°
2026-05-06 22:31 43.23511 -79.77266 3012 ft 125 kts 111°
2026-05-06 22:31 43.23201 -79.76151 3014 ft 126 kts 111°
2026-05-06 22:31 43.22888 -79.75022 3012 ft 127 kts 111°
2026-05-06 22:31 43.22572 -79.73884 3001 ft 128 kts 112°
2026-05-06 22:32 43.22255 -79.72743 3005 ft 128 kts 111°
2026-05-06 22:32 43.21939 -79.71603 3006 ft 127 kts 111°
2026-05-06 22:32 43.21629 -79.70487 3002 ft 126 kts 112°
2026-05-06 22:32 43.21320 -79.69370 3001 ft 125 kts 112°
2026-05-06 22:33 43.21013 -79.68266 2997 ft 123 kts 112°
2026-05-06 22:33 43.20711 -79.67176 2994 ft 122 kts 112°
2026-05-06 22:33 43.20412 -79.66100 2990 ft 120 kts 112°
2026-05-06 22:33 43.20117 -79.65036 2989 ft 119 kts 111°
2026-05-06 22:34 43.19823 -79.63980 2990 ft 119 kts 111°
2026-05-06 22:34 43.19524 -79.62900 2995 ft 123 kts 112°
2026-05-06 22:34 43.19214 -79.61792 3002 ft 124 kts 112°
2026-05-06 22:34 43.18906 -79.60690 3002 ft 123 kts 112°
2026-05-06 22:35 43.18600 -79.59591 3004 ft 123 kts 112°
2026-05-06 22:35 43.18294 -79.58493 3002 ft 123 kts 112°
2026-05-06 22:35 43.17988 -79.57397 3007 ft 123 kts 112°
2026-05-06 22:35 43.17682 -79.56300 3006 ft 123 kts 112°
2026-05-06 22:36 43.17375 -79.55202 3007 ft 123 kts 112°
2026-05-06 22:36 43.17173 -79.54476 3008 ft 123 kts 112°
2026-05-06 22:36 43.16866 -79.53379 3010 ft 123 kts 112°
2026-05-06 22:36 43.16559 -79.52280 3008 ft 123 kts 112°
2026-05-06 22:37 43.16252 -79.51185 3011 ft 124 kts 112°
2026-05-06 22:37 43.15945 -79.50087 3007 ft 123 kts 112°
2026-05-06 22:37 43.15640 -79.48998 3008 ft 122 kts 112°
2026-05-06 22:37 43.15336 -79.47912 3004 ft 123 kts 112°
2026-05-06 22:38 43.15030 -79.46821 3005 ft 123 kts 112°
2026-05-06 22:38 43.14724 -79.45730 3005 ft 123 kts 112°
2026-05-06 22:38 43.14417 -79.44636 3009 ft 124 kts 113°
2026-05-06 22:38 43.14108 -79.43535 3005 ft 123 kts 113°
2026-05-06 22:39 43.13801 -79.42442 3005 ft 123 kts 113°
2026-05-06 22:39 43.13492 -79.41342 3005 ft 124 kts 113°
2026-05-06 22:39 43.13183 -79.40240 3004 ft 124 kts 113°
2026-05-06 22:39 43.12874 -79.39146 3007 ft 125 kts 113°
2026-05-06 22:40 43.12558 -79.38023 3006 ft 125 kts 113°
2026-05-06 22:40 43.12246 -79.36913 3008 ft 125 kts 114°
2026-05-06 22:40 43.11933 -79.35803 3010 ft 125 kts 114°
2026-05-06 22:40 43.11619 -79.34689 3009 ft 125 kts 114°
2026-05-06 22:41 43.10995 -79.32471 3008 ft 125 kts 114°
2026-05-06 22:41 43.10687 -79.31379 3008 ft 125 kts 114°
2026-05-06 22:41 43.10330 -79.30290 3006 ft 126 kts 120°
2026-05-06 22:42 43.09940 -79.29212 3010 ft 127 kts 120°
2026-05-06 22:42 43.09554 -79.28121 3008 ft 128 kts 119°
2026-05-06 22:42 43.09169 -79.27024 3005 ft 128 kts 119°
2026-05-06 22:42 43.08779 -79.25907 3010 ft 128 kts 119°
2026-05-06 22:43 43.08395 -79.24808 3006 ft 128 kts 119°
2026-05-06 22:43 43.08017 -79.23722 3007 ft 128 kts 119°
2026-05-06 22:43 43.07636 -79.22629 3006 ft 127 kts 119°
2026-05-06 22:43 43.07255 -79.21540 3004 ft 127 kts 119°
2026-05-06 22:44 43.06875 -79.20450 3008 ft 127 kts 119°
2026-05-06 22:44 43.06494 -79.19361 3005 ft 127 kts 120°
2026-05-06 22:44 43.06113 -79.18271 3007 ft 127 kts 120°
2026-05-06 22:44 43.05731 -79.17179 3009 ft 127 kts 120°
2026-05-06 22:45 43.05350 -79.16089 3007 ft 127 kts 120°
2026-05-06 22:45 43.04970 -79.15005 3006 ft 126 kts 120°
2026-05-06 22:45 43.04593 -79.13925 3006 ft 126 kts 120°
2026-05-06 22:45 43.04217 -79.12852 3003 ft 125 kts 120°
2026-05-06 22:46 43.03841 -79.11779 3002 ft 125 kts 120°
2026-05-06 22:46 43.03468 -79.10713 3003 ft 124 kts 120°
2026-05-06 22:46 43.03097 -79.09654 3007 ft 123 kts 120°
2026-05-06 22:46 43.02727 -79.08602 3008 ft 123 kts 120°
2026-05-06 22:47 43.02360 -79.07555 3003 ft 122 kts 120°
2026-05-06 22:47 43.01995 -79.06515 3000 ft 121 kts 120°
2026-05-06 22:47 43.01635 -79.05487 3001 ft 119 kts 120°
2026-05-06 22:47 43.01276 -79.04467 3005 ft 119 kts 120°
2026-05-06 22:48 43.00920 -79.03452 3003 ft 118 kts 120°
2026-05-06 22:48 43.00565 -79.02442 3001 ft 118 kts 120°
2026-05-06 22:48 43.00211 -79.01435 3003 ft 118 kts 119°
2026-05-06 22:48 42.99856 -79.00425 3005 ft 118 kts 119°
2026-05-06 22:49 42.99501 -78.99416 3004 ft 118 kts 119°
2026-05-06 22:49 42.99145 -78.98403 3006 ft 118 kts 120°
2026-05-06 22:49 42.98787 -78.97389 3010 ft 119 kts 120°
2026-05-06 22:49 42.98425 -78.96363 3015 ft 121 kts 119°
2026-05-06 22:50 42.98058 -78.95324 3018 ft 122 kts 119°
2026-05-06 22:50 42.97689 -78.94279 3017 ft 123 kts 119°
2026-05-06 22:50 42.97317 -78.93227 3018 ft 123 kts 119°
2026-05-06 22:50 42.96943 -78.92168 3021 ft 124 kts 119°
2026-05-06 22:51 42.96566 -78.91100 3010 ft 125 kts 119°
2026-05-06 22:51 42.96191 -78.90039 3010 ft 126 kts 119°
2026-05-06 22:51 42.95809 -78.88958 3008 ft 126 kts 119°
2026-05-06 22:51 42.95433 -78.87892 3006 ft 124 kts 119°
2026-05-06 22:52 42.95060 -78.86838 3001 ft 123 kts 119°
2026-05-06 22:52 42.94687 -78.85780 2998 ft 122 kts 118°
2026-05-06 22:52 42.94317 -78.84736 2994 ft 122 kts 119°
2026-05-06 22:52 42.93949 -78.83695 2997 ft 122 kts 119°
2026-05-06 22:53 42.93578 -78.82649 2998 ft 122 kts 118°
2026-05-06 22:53 42.93210 -78.81607 2993 ft 122 kts 118°
2026-05-06 22:53 42.92841 -78.80567 2994 ft 122 kts 118°
2026-05-06 22:53 42.92472 -78.79527 2994 ft 121 kts 119°
2026-05-06 22:54 42.92104 -78.78488 3000 ft 122 kts 118°
2026-05-06 22:54 42.91735 -78.77449 2998 ft 122 kts 119°
2026-05-06 22:54 42.91366 -78.76409 2993 ft 122 kts 119°
2026-05-06 22:54 42.90996 -78.75367 3000 ft 122 kts 118°
2026-05-06 22:55 42.90627 -78.74328 2998 ft 122 kts 118°
2026-05-06 22:55 42.90262 -78.73301 2997 ft 122 kts 118°
2026-05-06 22:55 42.89886 -78.72248 2999 ft 122 kts 121°
2026-05-06 22:55 42.89429 -78.71284 2999 ft 121 kts 128°
2026-05-06 22:56 42.88962 -78.70332 2999 ft 121 kts 128°
2026-05-06 22:56 42.88500 -78.69390 2998 ft 121 kts 127°
2026-05-06 22:56 42.88033 -78.68438 2996 ft 121 kts 127°
2026-05-06 22:56 42.87567 -78.67484 2997 ft 121 kts 127°
2026-05-06 22:57 42.87101 -78.66533 2997 ft 121 kts 127°
2026-05-06 22:57 42.86634 -78.65579 2998 ft 121 kts 127°
2026-05-06 22:57 42.86168 -78.64624 2995 ft 121 kts 127°
2026-05-06 22:57 42.85702 -78.63667 2995 ft 121 kts 128°
2026-05-06 22:58 42.85235 -78.62708 2997 ft 121 kts 127°
2026-05-06 22:58 42.84770 -78.61757 2996 ft 121 kts 128°
2026-05-06 22:58 42.84306 -78.60806 2992 ft 121 kts 128°
2026-05-06 22:58 42.83867 -78.59831 2990 ft 122 kts 111°
2026-05-06 22:59 42.83715 -78.58693 2989 ft 122 kts 99°
2026-05-06 22:59 42.83568 -78.57549 3013 ft 122 kts 101°
2026-05-06 22:59 42.83415 -78.56405 3012 ft 123 kts 101°
2026-05-06 22:59 42.83260 -78.55258 3012 ft 123 kts 101°
2026-05-06 23:00 42.83105 -78.54111 3011 ft 122 kts 101°
2026-05-06 23:00 42.82949 -78.52969 3012 ft 123 kts 100°
2026-05-06 23:00 42.82926 -78.51821 3002 ft 120 kts 78°
2026-05-06 23:00 42.83060 -78.50696 3006 ft 121 kts 79°
2026-05-06 23:01 42.83183 -78.49559 3012 ft 121 kts 80°
2026-05-06 23:01 42.83265 -78.48423 3008 ft 120 kts 96°
2026-05-06 23:01 42.82878 -78.47462 3005 ft 116 kts 145°
2026-05-06 23:01 42.82180 -78.47083 3013 ft 105 kts 187°
2026-05-06 23:02 42.81512 -78.47325 3016 ft 97 kts 222°
2026-05-06 23:02 42.81087 -78.47980 3019 ft 91 kts 251°
2026-05-06 23:02 42.80985 -78.48810 3016 ft 90 kts 277°
2026-05-06 23:02 42.81204 -78.49579 3018 ft 89 kts 303°
2026-05-06 23:03 42.81580 -78.50253 3019 ft 90 kts 303°
2026-05-06 23:03 42.81955 -78.50943 3019 ft 91 kts 304°
2026-05-06 23:03 42.82334 -78.51637 3017 ft 92 kts 303°
2026-05-06 23:03 42.82713 -78.52332 3014 ft 91 kts 304°
2026-05-06 23:04 42.83090 -78.53021 3011 ft 90 kts 304°
2026-05-06 23:04 42.83459 -78.53706 3010 ft 89 kts 303°
2026-05-06 23:04 42.83825 -78.54394 3013 ft 90 kts 303°
2026-05-06 23:04 42.84183 -78.55080 3051 ft 86 kts 302°
2026-05-06 23:05 42.84536 -78.55773 3021 ft 90 kts 302°
2026-05-06 23:05 42.84885 -78.56480 3024 ft 90 kts 301°
2026-05-06 23:05 42.85252 -78.57181 3023 ft 92 kts 309°
2026-05-06 23:05 42.85675 -78.57840 3022 ft 93 kts 307°
2026-05-06 23:06 42.86093 -78.58542 2959 ft 98 kts 306°
2026-05-06 23:06 42.86519 -78.59279 2868 ft 98 kts 306°
2026-05-06 23:06 42.86935 -78.60010 2755 ft 97 kts 306°
2026-05-06 23:06 42.87346 -78.60744 2637 ft 97 kts 305°
2026-05-06 23:07 42.87741 -78.61459 2512 ft 90 kts 306°
2026-05-06 23:07 42.88091 -78.62104 2423 ft 83 kts 306°
2026-05-06 23:07 42.88429 -78.62727 2353 ft 80 kts 307°
2026-05-06 23:07 42.88751 -78.63318 2323 ft 74 kts 307°
2026-05-06 23:08 42.89051 -78.63862 2311 ft 70 kts 306°
2026-05-06 23:08 42.89351 -78.64416 2221 ft 76 kts 307°
2026-05-06 23:08 42.89683 -78.65017 2133 ft 83 kts 307°
2026-05-06 23:08 42.90035 -78.65660 2044 ft 86 kts 308°
2026-05-06 23:09 42.90401 -78.66326 1926 ft 88 kts 307°
2026-05-06 23:09 42.90765 -78.66991 1799 ft 89 kts 308°
2026-05-06 23:09 42.91140 -78.67675 1646 ft 92 kts 308°
2026-05-06 23:09 42.91534 -78.68393 1536 ft 95 kts 308°
2026-05-06 23:10 42.91924 -78.69106 1490 ft 94 kts 308°
2026-05-06 23:10 42.92263 -78.69724 1394 ft 72 kts 308°
2026-05-06 23:10 42.92548 -78.70251 1216 ft 69 kts 307°
2026-05-06 23:10 42.92841 -78.70805 1107 ft 73 kts 309°
2026-05-06 23:11 42.93140 -78.71364 985 ft 75 kts 308°
2026-05-06 23:11 42.93452 -78.71916 825 ft 73 kts 308°
2026-05-06 23:11 42.93723 -78.72404 717 ft 56 kts 307°
2026-05-06 23:11 42.93914 -78.72746 700 ft 37 kts 307°
2026-05-06 23:12 42.94069 -78.73031 707 ft 39 kts 307°
2026-05-06 23:12 42.94236 -78.73330 702 ft 40 kts 307°
2026-05-06 23:12 42.94414 -78.73495 705 ft 28 kts 358°
2026-05-06 23:12 42.94560 -78.73498 706 ft 18 kts
2026-05-06 23:13 42.94653 -78.73552 701 ft 14 kts 331°
2026-05-06 23:13 42.94716 -78.73501 701 ft 10 kts 28°
2026-05-06 23:13 42.94737 -78.73484 707 ft 0 kts 31°